[[{"header":{"parameterUnit":"m.s-1","parameterCategory":1,"la1":30.2991,"la2":30.254,"lo1":-89.0895,"lo2":-89.0444,"dy":0.0017,"dx":0.0017,"nx":28,"ny":28,"refTime":"2023-03-21T21:00:00:Z","depth":0,"parameterNumber":2,"parameterNumberName":"U-component_of_WINDS"},"data":[0,0,0,0,0,0,0,0,0,0,0,0,0,0,0,0,0,0,0,0,0,0,0,0,0,0,0,0,0,0,0,0,0,0,0,0,0,0,0,0,0,0,0,0,0,0,0,0,0,0,0,0,0,0,0,0,0,0,-0.9668,-0.9668,0,-0.9757,-0.9758,-0.9759,-0.9801,-0.9801,-0.9801,-0.9801,-0.9898,-0.99,-0.9903,0,0,0,0,0,0,0,0,0,0,0,0,0,-0.9537,-0.9539,-0.9667,-0.9669,-0.967,-0.9757,-0.9758,-0.976,-0.9801,-0.9801,-0.9801,-0.9801,-0.9897,-0.99,-0.9903,0,0,0,0,0,0,0,0,0,0,0,0,0,-0.9607,-0.9539,-0.9667,-0.9701,-0.9704,-0.9757,-0.9758,-0.976,-0.9801,-0.9801,-0.9801,-0.98,-0.9896,-0.99,-0.9904,-0.9931,0,0,-0.9916,-0.9918,0,0,0,0,0,0,0,0,-0.9603,-0.9611,-0.9695,-0.9698,-0.9703,-0.9768,-0.9748,-0.9818,-0.9801,-0.9764,-0.9801,-0.98,-0.9855,-0.9862,-0.988,-0.9936,-0.994,-0.9916,-0.9919,-0.9921,-0.9922,0,0,0,0,0,0,0,-0.9598,-0.9608,-0.9703,-0.9696,-0.9701,-0.9713,-0.9723,-0.9761,-0.981,-0.9768,-0.9771,-0.9781,-0.9857,-0.9876,-0.9882,-0.9941,-0.9916,-0.992,-0.9922,-0.9924,-1.0025,-1.0025,0,0,0,0,0,0,-0.9587,-0.9603,-0.97,-0.9706,-0.9651,-0.9715,-0.9726,-0.9747,-0.9809,-0.9818,-0.9781,-0.9782,-0.9869,-0.9878,-0.9886,-0.9922,-0.992,-0.9924,-0.9927,-1.0025,-1.0025,-1.0026,0,0,0,0,0,0,-0.9584,-0.9595,-0.9697,-0.9656,-0.9669,-0.9718,-0.9741,-0.9749,-0.9767,-0.9819,-0.9828,-0.979,-0.9869,-0.988,-0.9919,-0.9926,-0.9926,-0.993,-1.0025,-1.0025,-1.0025,-0.9995,0,0,0,0,0,0,-0.958,-0.9594,-0.9603,-0.9655,-0.9671,-0.9727,-0.9741,-0.9751,-0.9774,-0.9776,-0.9831,-0.9839,-0.987,-0.9913,-0.9923,-0.9932,-0.9933,-1.0024,-1.0025,-1.0025,-0.9996,-0.9995,-0.9994,0,0,0,0,0,-0.9575,-0.9593,-0.9604,-0.9615,-0.9684,-0.9727,-0.9737,-0.977,-0.9774,-0.9785,-0.9818,-0.9838,-0.9924,-0.9917,-0.9929,-0.9938,-1.0024,-1.0025,-1.0025,-0.9996,-0.9995,-0.9994,0,0,0,0,0,0,-0.9542,-0.96,-0.9613,-0.9648,-0.9682,-0.9734,-0.9749,-0.9767,-0.9803,-0.9804,-0.9846,-0.9858,-0.9893,-0.992,-0.9911,-0.9969,-0.9976,-0.9979,-0.995,-0.9949,-0.9947,-0.9941,-0.9936,0,0,0,0,0,-0.9539,-0.9567,-0.9617,-0.9643,-0.9659,-0.9701,-0.9721,-0.9743,-0.9782,-0.9797,-0.9833,-0.9871,-0.9906,-0.9929,-0.9965,-1.0,-1.0013,-1.0012,-1.0011,-1.001,-1.0012,-1.0033,-1.0034,-1.0028,-1.0028,-1.0028,0,0,-0.9533,-0.9568,-0.9583,-0.9637,-0.9666,-0.9696,-0.9713,-0.9744,-0.9767,-0.9802,-0.9841,-0.9869,-0.9914,-0.9951,-0.9969,-0.9974,-1.0017,-1.0011,-1.0009,-1.0013,-1.0034,-1.0035,-1.0035,-1.0028,-1.0028,-1.0028,0,0,-0.9537,-0.9565,-0.959,-0.9618,-0.9662,-0.9689,-0.9695,-0.9745,-0.9764,-0.9803,-0.9829,-0.9858,-0.9919,-0.9949,-0.9973,-0.9988,-1.0007,-0.9998,-0.9992,-1.0012,-1.0013,-1.0014,-1.0019,-1.0021,-1.0,-1.0,-1.0,0,-0.9524,-0.9568,-0.9601,-0.963,-0.9653,-0.9684,-0.971,-0.9737,-0.979,-0.9806,-0.9811,-0.9886,-0.9919,-0.9964,-0.9967,-0.9985,-0.9994,-0.9993,-1.001,-1.0011,-1.0012,-1.0018,-1.002,-0.9999,-0.9999,-0.9999,-0.9999,0,-0.9551,-0.9581,-0.9596,-0.9645,-0.967,-0.9697,-0.9735,-0.9757,-0.9777,-0.9804,-0.9844,-0.9884,-0.9928,-0.994,-0.9961,-0.9988,-0.999,-1.0001,-1.001,-1.0011,-1.0017,-1.0019,-0.9997,-0.9997,-0.9998,-0.9998,0,0,-0.9538,-0.9603,-0.9608,-0.963,-0.968,-0.9705,-0.9734,-0.9775,-0.9793,-0.9829,-0.9856,-0.9905,-0.9916,-0.9943,-0.9967,-0.9984,-0.9994,-0.9994,-0.9996,-0.9993,-1.0027,-1.0018,-1.002,-1.0007,-1.0007,-1.0008,-1.0023,0,-0.9549,-0.9601,-0.9631,-0.9671,-0.97,-0.9729,-0.9755,-0.9789,-0.9815,-0.9845,-0.9875,-0.991,-0.9921,-0.9937,-0.9955,-0.9989,-1.0001,-0.9988,-1.0033,-1.0034,-1.0021,-1.0024,-1.0015,-1.0028,-1.0026,-1.0027,-1.0027,0,-0.957,-0.9602,-0.9644,-0.969,-0.9704,-0.9726,-0.9766,-0.9793,-0.9833,-0.9851,-0.988,-0.9904,-0.9938,-0.9942,-0.999,-0.998,-1.0,-1.0019,-1.0021,-1.0027,-1.0031,-1.0031,-1.0033,-1.0035,-1.0031,-1.0031,-1.003,0,-0.9556,-0.9611,-0.9644,-0.9662,-0.9716,-0.9731,-0.9755,-0.9794,-0.9816,-0.9852,-0.9867,-0.9907,-0.9929,-0.996,-0.9994,-0.9994,-1.0038,-1.0046,-1.0056,-1.0055,-1.0064,-1.0063,-1.007,-1.0076,-1.0076,-1.0076,-1.0076,0,-0.9566,-0.9591,-0.9638,-0.9658,-0.9687,-0.9722,-0.975,-0.9776,-0.9811,-0.9838,-0.9866,-0.9891,-0.9935,-0.9965,-0.9993,-1.0028,-1.0038,-1.0055,-1.0062,-1.0052,-1.005,-1.0067,-1.0067,-1.0077,-1.0076,-1.0076,-1.0076,0,-0.9557,-0.9589,-0.9626,-0.9674,-0.9686,-0.9705,-0.9747,-0.9768,-0.9796,-0.9829,-0.9839,-0.9883,-0.992,-0.9957,-1.0009,-1.0027,-1.0062,-1.0072,-1.0048,-1.0052,-1.006,-1.0059,-1.0079,-1.0083,-1.0085,-1.0085,-1.0085,0,-0.9561,-0.9581,-0.9629,-0.9648,-0.967,-0.9701,-0.9723,-0.9758,-0.9781,-0.9827,-0.9843,-0.9882,-0.9915,-0.9974,-1.0012,-1.0051,-1.0062,-1.0066,-1.0068,-1.0058,-1.0063,-1.0062,-1.0064,-1.0065,-1.0065,-1.0065,-1.0065,0,-0.9566,-0.958,-0.9611,-0.9647,-0.9672,-0.9703,-0.9735,-0.9749,-0.9791,-0.9815,-0.9853,-0.9878,-0.9929,-0.9968,-1.0012,-1.0038,-1.0059,-1.0064,-1.0068,-1.0059,-1.0045,-1.0053,-1.0046,-1.0063,-1.0063,-1.0064,-1.0064,-1.0064,-0.9564,-0.9583,-0.9619,-0.9652,-0.9679,-0.9708,-0.973,-0.9759,-0.979,-0.9833,-0.9852,-0.9891,-0.993,-0.999,-1.0016,-1.0047,-1.0053,-1.0059,-1.0061,-1.0062,-1.006,-1.0039,-1.0056,-1.0056,-1.0056,-1.0056,-1.0056,0,-0.9571,-0.9595,-0.9625,-0.9667,-0.9693,-0.9708,-0.9744,-0.9765,-0.9798,-0.9832,-0.9863,-0.9907,-0.9944,-0.9984,-1.0024,-1.0042,-1.0053,-1.0052,-1.0051,-1.0057,-1.0053,-1.0045,-1.0042,-1.0042,-1.0042,-1.0042,-1.0042,-1.0042,-0.9577,-0.9609,-0.9628,-0.9674,-0.9699,-0.9735,-0.9754,-0.9781,-0.9808,-0.9855,-0.9885,-0.991,-0.9947,-0.999,-1.0026,-1.0037,-1.0051,-1.0047,-1.0061,-1.0056,-1.0057,-1.0058,-1.0051,-1.0049,-1.0049,-1.0062,-1.0062,-1.0062]},{"header":{"parameterUnit":"m.s-1","parameterCategory":1,"la1":30.2991,"la2":30.254,"lo1":-89.0895,"lo2":-89.0444,"dy":0.0017,"dx":0.0017,"nx":28,"ny":28,"refTime":"2023-03-21T21:00:00:Z","depth":0,"parameterNumber":3,"parameterNumberName":"V-component_of_WINDS"},"data":[0,0,0,0,0,0,0,0,0,0,0,0,0,0,0,0,0,0,0,0,0,0,0,0,0,0,0,0,0,0,0,0,0,0,0,0,0,0,0,0,0,0,0,0,0,0,0,0,0,0,0,0,0,0,0,0,0,0,3.0805,3.0805,0,3.0781,3.0781,3.0781,3.0716,3.0715,3.0714,3.0712,3.069,3.069,3.0691,0,0,0,0,0,0,0,0,0,0,0,0,0,3.0796,3.0797,3.0805,3.0805,3.0805,3.0782,3.0781,3.0781,3.0717,3.0715,3.0713,3.0712,3.069,3.069,3.0691,0,0,0,0,0,0,0,0,0,0,0,0,0,3.0789,3.0797,3.0805,3.077,3.0766,3.0782,3.0781,3.0781,3.0717,3.0715,3.0713,3.0711,3.0689,3.069,3.0691,3.074,0,0,3.0695,3.0695,0,0,0,0,0,0,0,0,3.079,3.0789,3.0775,3.0772,3.0768,3.075,3.077,3.0767,3.0717,3.0736,3.0712,3.071,3.0712,3.0711,3.0711,3.0739,3.0738,3.0695,3.0695,3.0696,3.0696,0,0,0,0,0,0,0,3.079,3.079,3.0796,3.0775,3.0771,3.0755,3.0752,3.0769,3.0736,3.0734,3.0729,3.0727,3.0709,3.071,3.071,3.0737,3.0695,3.0696,3.0696,3.0697,3.0804,3.0806,0,0,0,0,0,0,3.0795,3.0791,3.0797,3.0795,3.0774,3.0757,3.0753,3.0758,3.0735,3.073,3.0729,3.0724,3.0709,3.0709,3.0709,3.0764,3.0696,3.0697,3.0697,3.0802,3.0804,3.0807,0,0,0,0,0,0,3.0796,3.0797,3.0798,3.0792,3.0791,3.076,3.0765,3.0758,3.0759,3.0732,3.0725,3.0736,3.0707,3.0707,3.0732,3.0762,3.0697,3.0698,3.0799,3.0802,3.0805,3.0875,0,0,0,0,0,0,3.0796,3.0797,3.0815,3.0793,3.0791,3.0821,3.0767,3.076,3.0761,3.0754,3.0736,3.0731,3.0706,3.0731,3.0733,3.0763,3.0699,3.0796,3.08,3.0804,3.087,3.0881,3.089,0,0,0,0,0,3.0795,3.0836,3.0816,3.0817,3.0813,3.0823,3.0823,3.0792,3.0764,3.0781,3.0764,3.0732,3.0759,3.0734,3.0736,3.0766,3.0794,3.0799,3.0804,3.0866,3.0879,3.0889,0,0,0,0,0,0,3.0863,3.0832,3.081,3.0844,3.0837,3.0812,3.0834,3.0806,3.0807,3.0801,3.0764,3.076,3.0791,3.0781,3.0754,3.0812,3.0771,3.0777,3.0818,3.0829,3.0839,3.0841,3.07,0,0,0,0,0,3.0882,3.0893,3.0865,3.0898,3.0896,3.0866,3.0869,3.0846,3.0837,3.0834,3.0818,3.0811,3.0817,3.0823,3.0827,3.0868,3.0864,3.089,3.09,3.0908,3.0913,3.0934,3.0946,3.0823,3.0823,3.0823,0,0,3.0922,3.0906,3.0915,3.0912,3.0903,3.0915,3.0863,3.0879,3.0888,3.0836,3.0859,3.0847,3.0836,3.087,3.0884,3.0863,3.0946,3.0914,3.0921,3.0922,3.0941,3.0953,3.0963,3.0826,3.0826,3.0825,0,0,3.1,3.0989,3.1015,3.1007,3.0995,3.0974,3.0981,3.096,3.095,3.0972,3.0934,3.0944,3.0956,3.095,3.0949,3.1024,3.0995,3.1027,3.1078,3.1099,3.1109,3.1117,3.1145,3.1155,3.1032,3.1032,3.1032,0,3.105,3.1067,3.1032,3.105,3.105,3.1002,3.1029,3.1023,3.1014,3.1015,3.0991,3.1005,3.0995,3.1026,3.1045,3.1045,3.1051,3.1029,3.111,3.1118,3.1125,3.1151,3.1162,3.1036,3.1036,3.1035,3.1035,0,3.113,3.1142,3.1165,3.1156,3.1158,3.118,3.1149,3.1156,3.1132,3.1115,3.1138,3.1123,3.1124,3.113,3.1107,3.1158,3.1146,3.1116,3.1075,3.1142,3.1165,3.1175,3.1042,3.1041,3.1039,3.1038,0,0,3.1252,3.1222,3.1231,3.1226,3.1209,3.1217,3.1237,3.1238,3.1244,3.1239,3.1255,3.1266,3.1239,3.1237,3.1214,3.1232,3.1293,3.1201,3.12,3.1219,3.1349,3.1372,3.1384,3.1274,3.1275,3.1277,3.135,0,3.1326,3.1358,3.1327,3.1365,3.1376,3.1331,3.1349,3.134,3.1324,3.1331,3.1313,3.1322,3.1285,3.1284,3.13,3.1283,3.1319,3.1277,3.1289,3.129,3.1294,3.1396,3.1421,3.1491,3.1359,3.1361,3.1362,0,3.1417,3.1415,3.1455,3.1434,3.1437,3.1454,3.1451,3.1458,3.1448,3.1435,3.1433,3.1404,3.1422,3.1381,3.1406,3.1378,3.1381,3.1373,3.1375,3.1376,3.1331,3.1401,3.1512,3.1524,3.1376,3.1375,3.1374,0,3.1503,3.151,3.1534,3.1531,3.1508,3.152,3.1511,3.1498,3.15,3.1498,3.1499,3.15,3.1501,3.1502,3.1474,3.1446,3.1503,3.1459,3.1494,3.1495,3.1509,3.1509,3.1624,3.1509,3.1509,3.1509,3.1509,0,3.1589,3.1616,3.1572,3.1587,3.1615,3.1579,3.1608,3.1594,3.1583,3.1595,3.1556,3.1569,3.153,3.1539,3.1517,3.1542,3.1542,3.1533,3.1527,3.1537,3.1539,3.154,3.1534,3.1512,3.1511,3.1511,3.151,0,3.169,3.1662,3.1686,3.1661,3.1656,3.1677,3.1657,3.167,3.1651,3.1667,3.1668,3.1639,3.1647,3.1618,3.1622,3.1607,3.1644,3.163,3.1648,3.1644,3.168,3.1678,3.1801,3.1815,3.1691,3.1692,3.1693,0,3.1748,3.1767,3.1744,3.1749,3.1742,3.175,3.1752,3.1717,3.1721,3.1709,3.1724,3.1729,3.1731,3.1746,3.1725,3.1727,3.1713,3.1756,3.1713,3.1723,3.1715,3.1715,3.1717,3.1766,3.1767,3.1768,3.1769,0,3.1854,3.1839,3.1842,3.1841,3.1844,3.1842,3.1837,3.1843,3.1805,3.1811,3.1819,3.182,3.1823,3.1828,3.1826,3.1817,3.1788,3.1783,3.1791,3.1802,3.1812,3.1808,3.1673,3.178,3.1779,3.1778,3.1778,3.1777,3.1935,3.195,3.1936,3.1942,3.1934,3.193,3.1941,3.1923,3.1928,3.1928,3.1907,3.1918,3.1907,3.1901,3.1895,3.1904,3.1884,3.1896,3.1899,3.1903,3.1909,3.181,3.1903,3.1903,3.1902,3.1902,3.1902,0,3.204,3.2029,3.2034,3.2027,3.2032,3.2002,3.1995,3.2001,3.2011,3.2002,3.2005,3.2013,3.2018,3.1997,3.1999,3.201,3.1997,3.2012,3.2012,3.201,3.1927,3.192,3.2023,3.2023,3.2023,3.2023,3.2023,3.2023,3.2095,3.2119,3.2102,3.2121,3.2109,3.212,3.2119,3.2115,3.2108,3.2119,3.2122,3.2108,3.2095,3.2096,3.2099,3.2093,3.2096,3.2116,3.2106,3.2028,3.2016,3.2005,3.1998,3.2117,3.2117,3.2189,3.2189,3.219]}]]